Lancaster, TX

4:20 AM CDT on May 30, 2017 (GMT -0500)
Lancaster

Weather History for KLNC - March, 2013

Change the Weather History Date:

Tuesday, March 5, 2013

  Actual Average (KRBD) Record (KRBD)
Temperature  
Mean Temperature 48 °F -  
Max Temperature 62 °F 60 °F 84 °F (2009)
Min Temperature 33 °F 41 °F 24 °F (2015)
Degree Days  
Heating Degree Days 16    
Moisture  
Dew Point 25 °F    
Average Humidity 42    
Maximum Humidity 62    
Minimum Humidity 23    
Precipitation  
Precipitation 0.00 in - - ()
Sea Level Pressure  
Sea Level Pressure 30.24 in    
Wind  
Wind Speed 20 mph (NNW)    
Max Wind Speed 33 mph    
Max Gust Speed 40 mph    
Visibility 10 miles    
Events      
Averages and records for this station are not official NWS values.
T = Trace of Precipitation, MM = Missing Value Source: NWS Daily Summary

Daily Weather History Graph

Daily Weather History Graph

Search for Another Location

Airport or City:

Trip Planner

Search our weather history database for the weather conditions in past years. The results will help you decide how hot, cold, wet, or windy it might be!

Date:

Astronomy

Mar. 05, 2013 Rise Set
Actual Time 6:49 AM CST 6:27 PM CST
Civil Twilight 6:24 AM CST 6:52 PM CST
Nautical Twilight 5:56 AM CST 7:20 PM CST
Astronomical Twilight 5:27 AM CST 7:49 PM CST
Moon 1:48 AM CST (3/5) 12:22 PM CST (3/5)
Length of Visible Light 12h 27m
Length of Day
11h 38m
Last Quarter, 40% of the Moon is Illuminated
Mar 5
Last Quarter
Mar 11
New
Mar 19
First Quarter
Mar 27
Full
Apr 2
Last Quarter

Hourly Weather History & Observations

Time (CST) Temp. Windchill Dew Point Humidity Pressure Visibility Wind Dir Wind Speed Gust Speed Precip Events Conditions
12:15 AM 60.8 °F - 46.4 °F 59% 29.77 in 10.0 mi WNW 10.4 mph - N/A   Clear
12:35 AM 62.6 °F - 41.0 °F 45% 29.79 in 10.0 mi NNW 24.2 mph 31.1 mph N/A   Clear
12:55 AM 60.8 °F - 42.8 °F 52% 29.82 in 10.0 mi NNW 25.3 mph 28.8 mph N/A   Clear
1:15 AM 57.2 °F - 41.0 °F 55% 29.87 in 10.0 mi NNW 29.9 mph 35.7 mph N/A   Clear
1:35 AM 53.6 °F - 41.0 °F 62% 29.91 in 10.0 mi NNW 25.3 mph 35.7 mph N/A   Clear
1:55 AM 51.8 °F - 39.2 °F 62% 29.93 in 10.0 mi North 28.8 mph 38.0 mph N/A   Clear
2:15 AM 50.0 °F - 37.4 °F 62% 29.98 in 10.0 mi NNW 27.6 mph 34.5 mph N/A   Clear
2:35 AM 50.0 °F - 37.4 °F 62% 29.98 in 10.0 mi NNW 29.9 mph 35.7 mph N/A   Clear
2:55 AM 48.2 °F - 35.6 °F 62% 29.99 in 10.0 mi North 29.9 mph 35.7 mph N/A   Clear
3:15 AM 48.2 °F - 35.6 °F 62% 30.06 in 10.0 mi NNW 23.0 mph 35.7 mph N/A   Clear
3:35 AM 48.2 °F - 33.8 °F 58% 30.07 in 10.0 mi North 33.4 mph 40.3 mph N/A   Clear
3:55 AM 48.2 °F - 32.0 °F 54% 30.08 in 10.0 mi North 26.5 mph 38.0 mph N/A   Clear
4:15 AM 48.2 °F - 32.0 °F 54% 30.10 in 10.0 mi North 21.9 mph 36.8 mph N/A   Clear
4:35 AM 48.2 °F - 32.0 °F 54% 30.11 in 10.0 mi North 21.9 mph 34.5 mph N/A   Clear
4:55 AM 46.4 °F 38.1 °F 32.0 °F 57% 30.12 in 10.0 mi North 24.2 mph 36.8 mph N/A   Clear
5:15 AM 46.4 °F 38.3 °F 32.0 °F 57% 30.14 in 10.0 mi North 23.0 mph 31.1 mph N/A   Clear
5:35 AM 46.4 °F 39.2 °F 32.0 °F 57% 30.16 in 10.0 mi North 18.4 mph - N/A   Clear
5:55 AM 46.4 °F 39.2 °F 32.0 °F 57% 30.17 in 10.0 mi North 18.4 mph 24.2 mph N/A   Clear
6:15 AM 44.6 °F 36.1 °F 32.0 °F 61% 30.18 in 10.0 mi North 21.9 mph 28.8 mph N/A   Clear
6:35 AM 44.6 °F 36.6 °F 30.2 °F 57% 30.20 in 10.0 mi North 19.6 mph 26.5 mph N/A   Clear
6:55 AM 44.6 °F 36.6 °F 28.4 °F 53% 30.21 in 10.0 mi North 19.6 mph 27.6 mph N/A   Clear
7:15 AM 44.6 °F 35.7 °F 28.4 °F 53% 30.22 in 10.0 mi North 24.2 mph 33.4 mph N/A   Clear
7:35 AM 44.6 °F 35.5 °F 28.4 °F 53% 30.24 in 10.0 mi North 25.3 mph 29.9 mph N/A   Clear
7:55 AM 44.6 °F 35.7 °F 28.4 °F 53% 30.25 in 10.0 mi North 24.2 mph 28.8 mph N/A   Clear
8:15 AM 44.6 °F 36.6 °F 28.4 °F 53% 30.26 in 10.0 mi North 19.6 mph 33.4 mph N/A   Clear
8:35 AM 46.4 °F 38.3 °F 28.4 °F 50% 30.27 in 10.0 mi North 23.0 mph 28.8 mph N/A   Clear
8:55 AM 46.4 °F 37.9 °F 28.4 °F 50% 30.28 in 10.0 mi North 25.3 mph 28.8 mph N/A   Clear
9:15 AM 48.2 °F - 28.4 °F 46% 30.28 in 10.0 mi North 23.0 mph 28.8 mph N/A   Clear
9:35 AM 48.2 °F - 26.6 °F 43% 30.29 in 10.0 mi North 21.9 mph 32.2 mph N/A   Clear
9:55 AM 50.0 °F - 26.6 °F 40% 30.30 in 10.0 mi North 20.7 mph 28.8 mph N/A   Clear
10:15 AM 50.0 °F - 23.0 °F 35% 30.31 in 10.0 mi NNW 25.3 mph 31.1 mph N/A   Clear
10:35 AM 50.0 °F - 23.0 °F 35% 30.32 in 10.0 mi North 24.2 mph 32.2 mph N/A   Clear
10:55 AM 51.8 °F - 23.0 °F 33% 30.33 in 10.0 mi NNW 20.7 mph 25.3 mph N/A   Clear
11:15 AM 51.8 °F - 21.2 °F 30% 30.34 in 10.0 mi NNW 21.9 mph 29.9 mph N/A   Clear
11:35 AM 51.8 °F - 23.0 °F 33% 30.33 in 10.0 mi North 21.9 mph 29.9 mph N/A   Clear
11:55 AM 51.8 °F - 19.4 °F 28% 30.34 in 10.0 mi NW 23.0 mph 27.6 mph N/A   Clear
12:15 PM 51.8 °F - 21.2 °F 30% 30.34 in 10.0 mi NNW 21.9 mph 28.8 mph N/A   Clear
12:35 PM 53.6 °F - 23.0 °F 30% 30.33 in 10.0 mi NNW 24.2 mph 31.1 mph N/A   Clear
12:55 PM 53.6 °F - 21.2 °F 28% 30.34 in 10.0 mi NNW 20.7 mph 27.6 mph N/A   Clear
1:15 PM 53.6 °F - 19.4 °F 26% 30.33 in 10.0 mi NNW 21.9 mph 31.1 mph N/A   Clear
1:35 PM 53.6 °F - 17.6 °F 24% 30.33 in 10.0 mi NNW 25.3 mph 31.1 mph N/A   Clear
1:55 PM 53.6 °F - 17.6 °F 24% 30.31 in 10.0 mi NNW 24.2 mph 31.1 mph N/A   Clear
2:15 PM 53.6 °F - 17.6 °F 24% 30.31 in 10.0 mi NNW 18.4 mph 26.5 mph N/A   Clear
2:35 PM 55.4 °F - 19.4 °F 25% 30.30 in 10.0 mi NW 23.0 mph 29.9 mph N/A   Clear
2:55 PM 53.6 °F - 17.6 °F 24% 30.30 in 10.0 mi NW 20.7 mph - N/A   Clear
3:15 PM 55.4 °F - 17.6 °F 23% 30.30 in 10.0 mi NNW 20.7 mph 33.4 mph N/A   Clear
3:35 PM 55.4 °F - 17.6 °F 23% 30.30 in 10.0 mi NNW 17.3 mph 29.9 mph N/A   Clear
3:55 PM 55.4 °F - 17.6 °F 23% 30.30 in 10.0 mi NW 17.3 mph 25.3 mph N/A   Clear
4:15 PM 55.4 °F - 17.6 °F 23% 30.30 in 10.0 mi NNW 18.4 mph 24.2 mph N/A   Clear
4:35 PM 55.4 °F - 17.6 °F 23% 30.30 in 10.0 mi NNW 16.1 mph 21.9 mph N/A   Clear
4:55 PM 53.6 °F - 17.6 °F 24% 30.30 in 10.0 mi NNW 16.1 mph 26.5 mph N/A   Clear
5:15 PM 53.6 °F - 17.6 °F 24% 30.30 in 10.0 mi NNW 13.8 mph 20.7 mph N/A   Clear
5:35 PM 53.6 °F - 17.6 °F 24% 30.30 in 10.0 mi NNW 17.3 mph 23.0 mph N/A   Clear
5:55 PM 53.6 °F - 17.6 °F 24% 30.31 in 10.0 mi NNW 15.0 mph 18.4 mph N/A   Clear
6:15 PM 51.8 °F - 15.8 °F 24% 30.32 in 10.0 mi NNW 11.5 mph 18.4 mph N/A   Clear
6:35 PM 50.0 °F - 15.8 °F 26% 30.33 in 10.0 mi NNW 10.4 mph - N/A   Clear
6:55 PM 48.2 °F - 17.6 °F 30% 30.33 in 10.0 mi NNW 5.8 mph - N/A   Clear
7:15 PM 44.6 °F 40.7 °F 19.4 °F 37% 30.33 in 10.0 mi NNW 6.9 mph - N/A   Clear
7:35 PM 44.6 °F 42.2 °F 19.4 °F 37% 30.35 in 10.0 mi NNW 4.6 mph - N/A   Clear
7:55 PM 44.6 °F 42.2 °F 19.4 °F 37% 30.34 in 10.0 mi NW 4.6 mph - N/A   Clear
8:15 PM 44.6 °F 41.4 °F 19.4 °F 37% 30.35 in 10.0 mi NW 5.8 mph - N/A   Clear
8:35 PM 42.8 °F 40.1 °F 17.6 °F 36% 30.35 in 10.0 mi NW 4.6 mph - N/A   Clear
8:55 PM 42.8 °F 40.1 °F 19.4 °F 39% 30.35 in 10.0 mi NW 4.6 mph - N/A   Clear
9:15 PM 44.6 °F 41.4 °F 19.4 °F 37% 30.36 in 10.0 mi NW 5.8 mph - N/A   Clear
9:35 PM 42.8 °F 38.6 °F 19.4 °F 39% 30.37 in 10.0 mi NW 6.9 mph - N/A   Clear
9:55 PM 37.4 °F 32.8 °F 21.2 °F 52% 30.37 in 10.0 mi NNW 5.8 mph - N/A   Clear
10:15 PM 37.4 °F 32.8 °F 21.2 °F 52% 30.38 in 10.0 mi NNW 5.8 mph - N/A   Clear
10:35 PM 35.6 °F 31.7 °F 21.2 °F 56% 30.38 in 10.0 mi NNW 4.6 mph - N/A   Clear
10:55 PM 37.4 °F 33.8 °F 21.2 °F 52% 30.38 in 10.0 mi NW 4.6 mph - N/A   Clear
11:15 PM 35.6 °F - 19.4 °F 52% 30.38 in 10.0 mi Calm Calm - N/A   Clear
11:35 PM 35.6 °F 30.7 °F 17.6 °F 48% 30.37 in 10.0 mi North 5.8 mph - N/A   Clear
11:55 PM 33.8 °F 28.6 °F 17.6 °F 52% 30.38 in 10.0 mi North 5.8 mph - N/A   Clear